Hourly Data Report for September 22, 2017

All times are specified in Local Standard Time (LST). Add 1 hour to adjust for Daylight Saving Time where and when it is observed.

PENTICTON A
BRITISH COLUMBIA

49°27'45.000" N
119°36'08.000" W
344.40 m
1126146
71889
YYF

Download Data

Hourly Data (September 2017)
Hourly Data Report for September 22, 2017
Temp Definition
°C
Dew Point Temp Definition
°C
Rel Hum Definition
%
Wind Dir Definition
10's deg

Wind Spd Definition
km/h
Visibility Definition
km
Stn Press Definition
kPa
Hmdx Definition


Wind Chill Definition


Weather Definition


TIME
00:00 Legend Double Dagger 8.6 4.6 76 36 1 24.1 97.48     LegendNANA
01:00 Legend Double Dagger 8.5 4.1 74 29 3 24.1 97.49     Cloudy
02:00 Legend Double Dagger 5.4 2.9 84 36 3 24.1 97.50     LegendNANA
03:00 Legend Double Dagger 5.9 3.0 82 36 2 24.1 97.53     LegendNANA
04:00 Legend Double Dagger 7.0 2.9 75 36 7 24.1 97.58     Mostly Cloudy
05:00 Legend Double Dagger 7.7 2.8 71 36 1 24.1 97.60     LegendNANA
06:00 Legend Double Dagger 7.5 3.6 76 36 11 24.1 97.63     LegendNANA
07:00 Legend Double Dagger 8.7 4.0 72 35 9 24.1 97.66     Mostly Cloudy
08:00 Legend Double Dagger 12.2 3.8 56 34 11 24.1 97.67     LegendNANA
09:00 Legend Double Dagger 12.5 4.8 59 34 8 24.1 97.67     LegendNANA
10:00 Legend Double Dagger 15.6 3.9 45 34 7 24.1 97.63     Mostly Cloudy
11:00 Legend Double Dagger 16.2 1.8 37 35 8 24.1 97.55     LegendNANA
12:00 Legend Double Dagger 18.1 1.4 32 4 11 24.1 97.48     LegendNANA
13:00 Legend Double Dagger 18.7 2.3 33 10 5 24.1 97.41     Mostly Cloudy
14:00 Legend Double Dagger 18.9 1.0 30 5 4 24.1 97.38     LegendNANA
15:00 Legend Double Dagger 19.0 3.5 35 36 9 24.1 97.33     LegendNANA
16:00 Legend Double Dagger 18.2 5.2 42 34 9 24.1 97.33     Cloudy
17:00 Legend Double Dagger 16.1 6.7 53 36 9 24.1 97.32     LegendNANA
18:00 Legend Double Dagger 15.1 6.2 55 33 11 24.1 97.33     LegendNANA
19:00 Legend Double Dagger 14.5 5.9 56 36 1 24.1 97.36     Mostly Cloudy
20:00 Legend Double Dagger 13.7 6.2 61 2 4 24.1 97.39     LegendNANA
21:00 Legend Double Dagger 12.4 4.6 59 36 3 24.1 97.40     LegendNANA
22:00 Legend Double Dagger 10.3 5.5 72 1 5 24.1 97.41     Mostly Cloudy
23:00 Legend Double Dagger 10.0 3.8 65 36 2 24.1 97.43     LegendNANA

Notes on Data Quality.

Legend

  • E = Estimated
  • M = Missing
  • NA = Not Available
  • ‡ = Partner data that is not subject to review by the National Climate Archives
Date modified: